�������l�o���
Date,Time,MP-1(��Sv/h),MP-2(��Sv/h),MP-3(��Sv/h),MP-4(��Sv/h),MP-5(��Sv/h),MP-6(��Sv/h),MP-7(��Sv/h),MP-8(��Sv/h),����,����(m/s),���J
2017/01/29,00:00,1.061,1.802,1.172,2.031,1.409,0.554,1.021,0.949,�k�k��,5.0,��
2017/01/29,00:10,1.063,1.803,1.170,2.030,1.406,0.554,1.020,0.949,�k��,5.4,��
2017/01/29,00:20,1.062,1.800,1.172,2.033,1.408,0.554,1.021,0.949,�k��,4.6,��
2017/01/29,00:30,1.062,1.803,1.172,2.033,1.406,0.554,1.020,0.948,�k��,3.4,��
2017/01/29,00:40,1.062,1.805,1.171,2.031,1.404,0.555,1.021,0.951,�k��,3.0,��
2017/01/29,00:50,1.060,1.800,1.171,2.030,1.408,0.555,1.021,0.949,�k��,3.0,��
2017/01/29,01:00,1.060,1.799,1.172,2.032,1.405,0.555,1.021,0.950,�k��,4.5,��
2017/01/29,01:10,1.061,1.802,1.172,2.030,1.407,0.554,1.019,0.949,�k��,5.3,��
2017/01/29,01:20,1.060,1.803,1.170,2.030,1.407,0.555,1.021,0.947,�k��,5.9,��
2017/01/29,01:30,1.061,1.804,1.170,2.031,1.405,0.553,1.021,0.949,�k��,5.8,��
2017/01/29,01:40,1.059,1.802,1.171,2.027,1.408,0.555,1.018,0.948,�k��,5.6,��
2017/01/29,01:50,1.063,1.801,1.170,2.032,1.405,0.556,1.019,0.949,�k��,5.0,��
2017/01/29,02:00,1.061,1.800,1.171,2.028,1.406,0.555,1.019,0.949,�k,3.1,��
2017/01/29,02:10,1.061,1.799,1.170,2.029,1.406,0.557,1.020,0.948,�k�k��,3.5,��
2017/01/29,02:20,1.062,1.799,1.171,2.030,1.407,0.556,1.020,0.948,�k�k��,4.2,��
2017/01/29,02:30,1.063,1.800,1.169,2.027,1.408,0.556,1.021,0.948,�k�k��,4.7,��
2017/01/29,02:40,1.060,1.802,1.171,2.032,1.407,0.555,1.022,0.950,�k�k��,3.7,��
2017/01/29,02:50,1.062,1.802,1.169,2.030,1.407,0.555,1.019,0.946,�k�k��,3.3,��
2017/01/29,03:00,1.063,1.802,1.170,2.032,1.404,0.555,1.019,0.950,�k�k��,3.1,��
2017/01/29,03:10,1.062,1.799,1.172,2.030,1.406,0.555,1.019,0.948,�k��,2.8,��
2017/01/29,03:20,1.060,1.803,1.171,2.031,1.408,0.555,1.021,0.948,�k��,2.6,��
2017/01/29,03:30,1.062,1.800,1.173,2.030,1.407,0.556,1.021,0.948,�k��,2.6,��
2017/01/29,03:40,1.060,1.802,1.171,2.031,1.407,0.553,1.019,0.949,�k�k��,2.3,��
2017/01/29,03:50,1.064,1.801,1.171,2.030,1.406,0.555,1.022,0.950,�k�k��,2.0,��
2017/01/29,04:00,1.064,1.801,1.169,2.030,1.406,0.556,1.021,0.947,�k�k��,2.0,��
2017/01/29,04:10,1.060,1.799,1.172,2.031,1.407,0.555,1.020,0.949,�k��,1.7,��
2017/01/29,04:20,1.062,1.799,1.169,2.029,1.405,0.555,1.021,0.949,�k��,2.0,��
2017/01/29,04:30,1.063,1.804,1.171,2.030,1.404,0.554,1.020,0.948,�k��,2.2,��
2017/01/29,04:40,1.062,1.799,1.171,2.029,1.408,0.554,1.023,0.949,�k��,2.3,��
2017/01/29,04:50,1.061,1.801,1.170,2.029,1.407,0.555,1.019,0.947,�k��,2.5,��
2017/01/29,05:00,1.063,1.798,1.169,2.030,1.405,0.555,1.020,0.948,�k��,3.5,��
2017/01/29,05:10,1.061,1.799,1.168,2.029,1.404,0.556,1.019,0.948,�k��,3.7,��
2017/01/29,05:20,1.060,1.800,1.171,2.029,1.406,0.556,1.023,0.948,�k��,4.1,��
2017/01/29,05:30,1.061,1.800,1.171,2.029,1.407,0.554,1.020,0.949,�k��,3.5,��
2017/01/29,05:40,1.062,1.802,1.170,2.030,1.407,0.556,1.020,0.948,�k��,3.6,��
2017/01/29,05:50,1.062,1.801,1.170,2.031,1.404,0.554,1.021,0.950,�k��,3.4,��
2017/01/29,06:00,1.062,1.799,1.171,2.031,1.406,0.556,1.018,0.948,�k�k��,2.5,��
2017/01/29,06:10,1.061,1.801,1.169,2.031,1.404,0.555,1.019,0.947,�k��,2.5,��
2017/01/29,06:20,1.061,1.800,1.171,2.032,1.405,0.555,1.021,0.949,�k��,2.3,��
2017/01/29,06:30,1.061,1.800,1.169,2.030,1.406,0.555,1.020,0.947,�k��,2.3,��
2017/01/29,06:40,1.061,1.803,1.172,2.029,1.407,0.556,1.022,0.949,�k�k��,2.0,��
2017/01/29,06:50,1.060,1.801,1.171,2.031,1.405,0.554,1.020,0.948,�k�k��,2.9,��
2017/01/29,07:00,1.063,1.800,1.171,2.030,1.406,0.555,1.019,0.947,�k�k��,3.7,��
2017/01/29,07:10,1.065,1.801,1.169,2.029,1.406,0.556,1.020,0.948,�k�k��,3.5,��
2017/01/29,07:20,1.062,1.802,1.170,2.031,1.407,0.555,1.021,0.949,�k�k��,3.7,��
2017/01/29,07:30,1.061,1.801,1.172,2.028,1.407,0.555,1.018,0.947,�k�k��,3.5,��
2017/01/29,07:40,1.062,1.796,1.174,2.031,1.407,0.556,1.020,0.950,�k�k��,3.0,��
2017/01/29,07:50,1.063,1.803,1.172,2.031,1.405,0.555,1.021,0.949,�k�k��,3.2,��
2017/01/29,08:00,1.061,1.803,1.171,2.030,1.403,0.555,1.021,0.948,�k�k��,3.4,��
2017/01/29,08:10,1.064,1.802,1.170,2.030,1.407,0.555,1.021,0.949,�k��,3.1,��
2017/01/29,08:20,1.063,1.800,1.171,2.033,1.406,0.555,1.020,0.950,�k��,3.2,��
2017/01/29,08:30,1.065,1.803,1.173,2.032,1.407,0.555,1.021,0.951,�k��,3.0,��
2017/01/29,08:40,1.061,1.803,1.172,2.032,1.409,0.554,1.023,0.948,�k�k��,2.5,��
2017/01/29,08:50,1.062,1.801,1.172,2.035,1.408,0.555,1.023,0.949,�k��,2.0,��
2017/01/29,09:00,1.064,1.802,1.171,2.034,1.408,0.557,1.022,0.948,�k�k��,2.2,��
2017/01/29,09:10,1.066,1.805,1.175,2.033,1.409,0.556,1.022,0.949,�k�k��,3.7,��
2017/01/29,09:20,1.067,1.806,1.174,2.033,1.411,0.555,1.022,0.951,�k�k��,3.4,��
2017/01/29,09:30,1.067,1.806,1.174,2.034,1.410,0.557,1.024,0.949,�k�k��,3.4,��
2017/01/29,09:40,1.066,1.803,1.172,2.034,1.409,0.558,1.023,0.951,�k�k��,3.5,��
2017/01/29,09:50,1.067,1.805,1.172,2.036,1.410,0.556,1.022,0.951,�k�k��,3.1,��
2017/01/29,10:00,1.066,1.805,1.174,2.035,1.414,0.557,1.020,0.949,�k�k��,2.8,��
2017/01/29,10:10,1.064,1.809,1.174,2.036,1.411,0.555,1.018,0.950,�k�k��,2.6,��
2017/01/29,10:20,1.069,1.803,1.176,2.038,1.413,0.557,1.019,0.950,�k,2.3,��
2017/01/29,10:30,1.069,1.807,1.174,2.034,1.410,0.557,1.019,0.950,�k�k��,2.6,��
2017/01/29,10:40,1.066,1.810,1.175,2.035,1.412,0.557,1.019,0.950,�k�k��,2.0,��
2017/01/29,10:50,1.066,1.806,1.175,2.039,1.410,0.558,1.019,0.951,�k�k��,2.0,��
2017/01/29,11:00,1.067,1.807,1.173,2.035,1.414,0.558,1.018,0.951,�k,1.9,��
2017/01/29,11:10,1.068,1.806,1.178,2.038,1.413,0.559,1.020,0.951,�k,2.0,��
2017/01/29,11:20,1.071,1.806,1.177,2.034,1.414,0.558,1.021,0.950,�k�k��,2.5,��
2017/01/29,11:30,1.070,1.807,1.177,2.034,1.414,0.558,1.020,0.951,�k,2.6,��
2017/01/29,11:40,1.069,1.809,1.175,2.037,1.411,0.557,1.020,0.950,�k,2.3,��
2017/01/29,11:50,1.069,1.809,1.174,2.039,1.416,0.558,1.022,0.953,�k�k��,2.3,��
2017/01/29,12:00,1.068,1.810,1.177,2.038,1.415,0.556,1.020,0.950,�k��,2.3,��
2017/01/29,12:10,1.070,1.809,1.175,2.037,1.416,0.560,1.021,0.953,�k�k��,2.6,��
2017/01/29,12:20,1.070,1.808,1.176,2.036,1.414,0.558,1.020,0.953,�k,3.2,��
2017/01/29,12:30,1.069,1.807,1.176,2.038,1.416,0.558,1.020,0.950,�k,3.4,��
2017/01/29,12:40,1.067,1.809,1.179,2.039,1.413,0.558,1.020,0.951,�k,2.6,��
2017/01/29,12:50,1.069,1.809,1.179,2.036,1.413,0.559,1.022,0.950,�k,2.0,��
2017/01/29,13:00,1.069,1.810,1.178,2.038,1.416,0.560,1.020,0.950,�k�k��,2.0,��
2017/01/29,13:10,1.069,1.811,1.175,2.039,1.415,0.558,1.022,0.951,�k�k��,2.8,��
2017/01/29,13:20,1.072,1.809,1.176,2.037,1.414,0.557,1.021,0.952,�k�k��,2.9,��
2017/01/29,13:30,1.072,1.809,1.177,2.036,1.416,0.557,1.021,0.951,�k,1.7,��
2017/01/29,13:40,1.071,1.809,1.178,2.036,1.415,0.560,1.022,0.951,�k,1.5,��
2017/01/29,13:50,1.071,1.807,1.177,2.036,1.418,0.559,1.021,0.949,�k,1.2,��
2017/01/29,14:00,1.073,1.809,1.179,2.038,1.415,0.558,1.020,0.950,���k��,0.9,��
2017/01/29,14:10,1.072,1.809,1.179,2.039,1.416,0.559,1.022,0.952,�k��,1.2,��
2017/01/29,14:20,1.072,1.809,1.178,2.039,1.415,0.560,1.022,0.952,���k��,1.2,��
2017/01/29,14:30,1.070,1.810,1.176,2.039,1.416,0.559,1.022,0.952,���k��,1.5,��
2017/01/29,14:40,1.071,1.813,1.178,2.039,1.416,0.560,1.021,0.951,��,2.0,��
2017/01/29,14:50,1.071,1.811,1.180,2.040,1.417,0.560,1.023,0.951,���쓌,1.7,��
2017/01/29,15:00,1.073,1.810,1.178,2.040,1.417,0.561,1.020,0.951,���쓌,2.0,��
2017/01/29,15:10,1.072,1.811,1.178,2.040,1.414,0.559,1.023,0.951,���쓌,2.3,��
2017/01/29,15:20,1.074,1.811,1.179,2.038,1.414,0.559,1.023,0.951,���쓌,3.3,��
2017/01/29,15:30,1.073,1.813,1.178,2.039,1.416,0.559,1.023,0.950,�쓌,4.0,��
2017/01/29,15:40,1.070,1.807,1.176,2.038,1.418,0.561,1.023,0.951,��쓌,3.8,��
2017/01/29,15:50,1.073,1.809,1.179,2.036,1.417,0.559,1.024,0.952,��쓌,4.3,��
2017/01/29,16:00,1.073,1.810,1.179,2.038,1.416,0.561,1.023,0.951,�쓌,4.0,��
2017/01/29,16:10,1.072,1.809,1.181,2.040,1.417,0.561,1.022,0.951,�쓌,4.3,��
2017/01/29,16:20,1.072,1.813,1.178,2.039,1.417,0.559,1.022,0.951,�쓌,4.3,��
2017/01/29,16:30,1.071,1.809,1.179,2.039,1.418,0.559,1.023,0.950,��쓌,3.8,��
2017/01/29,16:40,1.073,1.809,1.177,2.037,1.416,0.558,1.022,0.950,��쓌,3.1,��
2017/01/29,16:50,1.071,1.812,1.178,2.036,1.416,0.559,1.024,0.951,��,4.0,��
2017/01/29,17:00,1.073,1.807,1.179,2.035,1.416,0.559,1.024,0.952,��쓌,4.3,��
2017/01/29,17:10,1.072,1.807,1.179,2.038,1.417,0.560,1.023,0.951,��쓌,3.8,��
2017/01/29,17:20,1.073,1.809,1.180,2.039,1.417,0.560,1.024,0.953,��,3.3,��
2017/01/29,17:30,1.074,1.809,1.177,2.036,1.414,0.559,1.023,0.950,��,3.9,��
2017/01/29,17:40,1.074,1.809,1.180,2.037,1.417,0.560,1.022,0.951,��,3.7,��
2017/01/29,17:50,1.071,1.808,1.177,2.040,1.418,0.558,1.022,0.951,��쓌,3.2,��
2017/01/29,18:00,1.072,1.809,1.177,2.036,1.416,0.559,1.026,0.950,��,3.5,��
2017/01/29,18:10,1.073,1.808,1.180,2.036,1.415,0.559,1.025,0.949,��,3.6,��
2017/01/29,18:20,1.072,1.812,1.178,2.038,1.414,0.560,1.023,0.950,��,3.5,��
2017/01/29,18:30,1.075,1.806,1.176,2.040,1.416,0.561,1.024,0.950,��쐼,4.2,��
2017/01/29,18:40,1.073,1.807,1.176,2.036,1.413,0.560,1.024,0.950,��쐼,3.9,��
2017/01/29,18:50,1.070,1.807,1.176,2.038,1.414,0.559,1.025,0.951,��쐼,3.7,��
2017/01/29,19:00,1.072,1.808,1.178,2.035,1.416,0.559,1.025,0.950,��쐼,3.8,��
2017/01/29,19:10,1.070,1.808,1.176,2.037,1.415,0.559,1.024,0.950,��쐼,4.5,��
2017/01/29,19:20,1.071,1.809,1.177,2.036,1.415,0.559,1.026,0.950,��쐼,4.4,��
2017/01/29,19:30,1.072,1.806,1.178,2.039,1.415,0.558,1.026,0.950,��쐼,3.9,��
2017/01/29,19:40,1.071,1.809,1.178,2.037,1.417,0.559,1.024,0.953,��쐼,4.4,��
2017/01/29,19:50,1.072,1.806,1.178,2.037,1.414,0.559,1.025,0.952,��쐼,4.3,��
2017/01/29,20:00,1.072,1.811,1.179,2.037,1.415,0.559,1.025,0.952,��쐼,4.6,��
2017/01/29,20:10,1.073,1.808,1.178,2.039,1.414,0.560,1.022,0.952,��쐼,4.3,��
2017/01/29,20:20,1.073,1.804,1.178,2.036,1.412,0.558,1.025,0.950,��쐼,4.7,��
2017/01/29,20:30,1.073,1.810,1.177,2.038,1.415,0.561,1.024,0.950,��쐼,4.3,��
2017/01/29,20:40,1.074,1.808,1.177,2.039,1.416,0.559,1.025,0.950,��쐼,4.4,��
2017/01/29,20:50,1.072,1.809,1.178,2.039,1.417,0.560,1.026,0.950,�쐼,3.6,��
2017/01/29,21:00,1.074,1.809,1.177,2.036,1.414,0.560,1.024,0.951,��쐼,3.9,��
2017/01/29,21:10,1.071,1.806,1.179,2.039,1.414,0.561,1.023,0.952,��쐼,4.0,��
2017/01/29,21:20,1.072,1.810,1.177,2.040,1.414,0.560,1.026,0.951,��쐼,4.2,��
2017/01/29,21:30,1.073,1.805,1.175,2.035,1.414,0.560,1.024,0.951,��쐼,4.9,��
2017/01/29,21:40,1.073,1.810,1.178,2.041,1.414,0.561,1.025,0.950,��,5.0,��
2017/01/29,21:50,1.072,1.810,1.178,2.042,1.417,0.560,1.024,0.951,��쐼,5.2,��
2017/01/29,22:00,1.072,1.810,1.178,2.039,1.415,0.562,1.026,0.953,��쐼,6.1,��
2017/01/29,22:10,1.071,1.811,1.181,2.035,1.417,0.560,1.024,0.951,��쐼,6.9,��
2017/01/29,22:20,1.073,1.810,1.179,2.041,1.415,0.560,1.025,0.950,��,8.0,��
2017/01/29,22:30,1.072,1.808,1.179,2.039,1.413,0.562,1.025,0.953,��,7.7,��
2017/01/29,22:40,1.074,1.810,1.180,2.040,1.417,0.561,1.025,0.951,��,7.2,��
2017/01/29,22:50,1.075,1.809,1.180,2.040,1.414,0.561,1.026,0.951,��쐼,6.6,��
2017/01/29,23:00,1.073,1.811,1.182,2.041,1.418,0.562,1.026,0.951,��쐼,6.0,��
2017/01/29,23:10,1.075,1.809,1.180,2.035,1.413,0.560,1.024,0.951,��쐼,5.9,��
2017/01/29,23:20,1.074,1.811,1.181,2.037,1.418,0.559,1.025,0.951,��쐼,5.0,��
2017/01/29,23:30,1.075,1.808,1.180,2.037,1.412,0.560,1.025,0.953,��쐼,4.3,��
2017/01/29,23:40,1.074,1.805,1.181,2.037,1.414,0.561,1.024,0.951,��,3.5,��
2017/01/29,23:50,1.075,1.807,1.178,2.041,1.417,0.560,1.025,0.951,��,2.5,��
